{"data":{"norad_id":60993,"intl_designator":"2024-158D","name":"STARLINK-11283 [DTC]","alt_names":[],"object_type":"PAYLOAD","status":"ACTIVE","operator":null,"country":"US","launch_date":"2024-09-05","launch_site_code":"AFETR","launch_vehicle":null,"mission":null,"orbit_class":"UNKNOWN","rcs_meters":null,"size_class":null,"mass_kg":null,"dimensions":null,"purposes":["comms"],"wikipedia_slug":null,"has_3d_model":false,"image_url":null,"decayed_at":null,"tle_current":{"epoch":"2026-09-21T08:52:50.372544Z","epoch_age_seconds":113087,"freshness":"FRESH","line1":"1 60993U 24158D   26264.37002746 -.00000044  00000+0  44880-5 0  9993","line2":"2 60993  53.1582  36.9835 0000592  74.6166 285.4918 15.69709423118321","mean_motion":15.69709423,"eccentricity":5.92e-5,"inclination_deg":53.1582,"raan_deg":36.9835,"arg_perigee_deg":74.6166,"mean_anomaly_deg":285.4918,"bstar":4.488e-6,"rev_number":11832,"period_min":91.7367239376,"perigee_km":359.32951994165,"apogee_km":360.1272832052,"semimajor_km":6737.8654015734,"source":"CELESTRAK","updated_at":"2026-09-22T09:00:49.294435Z"}}}